COSMOS 2251 DEB, 37959

Orbit data source: Space-Track

COSMOS 2251 DEB, 37959 is space debris in LEO originally from a launch on Wed, 16 Jun 1993 UTC launched from the Plesetsk Missile And Space Complex (PKMTR). The debris from Iridium 33, an American commercial communications satellite, has been tracked extensively since its accidental collision with the defunct Russian satellite Cosmos 2251 in 2009. This event, occurring at high speed in low Earth orbit (LEO), generated thousands of pieces of space debris, significantly increasing the risk of further collisions. The Iridium 33 debris cloud has impacted space traffic management and orbital debris mitigation strategies, making it a subject of ongoing study in space situational awareness.

Loading next visibility...
Identifier
37959, 1993-036BPJ
Orbit
LEO
Country
Flag of CISCIS
Related business
Manufacturer
Unknown
Mission
Spacecraft
Bus & Motor
Unknown
Mass
Unknown
Launch date (UTC)
1993-06-16 (33 years ago)
Launch vehicle
Unknown
Launch site
Plesetsk Missile And Space Complex (PKMTR)
Object type
Payload
Rocket body
Debris
Shape & HBR
Unknown shape, 0.1 m
Radar Cross Section
Small (<0.1 m²)

Expand to show TLE details & history
Last TLE update: 5 hours ago

TLE from 5 hours ago
0 COSMOS 2251 DEB
1 37959U 93036BPJ 25354.86799808  .00001730  00000-0  37303-3 0  9998
2 37959  74.0098  41.4544 0057352 182.5287 355.6373 14.58188952802452
Epoch: 2025-12-20T20:49Z
TLE epoch observation values (Epoch: 2025-12-20T20:49:55.034Z)
Latitude
1.70992°
Longitude
178.79897°
Altitude
660.982 km
Speed
7.549 km/s
True Right ascension
14h 43m 52s
True Declination
1° 41' 58"
Sunlit
Object was in daylight at epoch
Visualization orbit readout
Latitude
Unknown
Longitude
Unknown
Altitude
Unknown
Speed
Unknown
Apparent Right ascension
Unknown
Apparent Declination
Unknown
Sunlit
N/A
Visualization observer readout
Local Sidereal Time
01:07:54
Azimuth
Unknown
Elevation
Unknown
Doppler factor
Unknown
Orbital elements
Apogee altitude
737.205 km
Perigee altitude
656.054 km
Semi-major axis
7,074.766 km
Eccentricity
0.00574
Inclination
74.0098°
RAAN
41.4544°
Arg. of periapsis
182.5287°
True anomaly
355.58695°
Mean anomaly
355.6373°
Eccentric anomaly
355.61216°
Mean motion
3.64733 °/min
Orbital period
98.7 mins
BSTAR
0.00037303
Loading maneuver chart data...
Computing Atmospheric mass density...
Loading historical data...
Loading historical data...
Loading historical data...
Loading historical data...
Loading historical data...
Loading historical data...
Loading historical data...

Documentation

Showing up to 5 results
|